Terminal Aerodrome Forecast
Issued by NWS

Home | Current Version | Previous Version | Text Only | Print | Product List | Glossary On
Versions: 1 2 3 4 5 6 7 8 9 10 11 12 13 14 15 16 17 18 19
000
FTUS46 KSEW 281100
TAFPAE
TAF
KPAE 281125Z 2812/2912 03003KT P6SM OVC018
     FM281500 VRB03KT P6SM BKN008 OVC015
     FM281900 11004KT P6SM OVC020
     FM282100 VRB04KT P6SM BKN045
     FM290200 17004KT P6SM SCT050 BKN100
     FM290600 15004KT P6SM OVC050=

USA.gov is the U.S. government's official web portal to all federal, state and local government web resources and services.